Theta_e
291 294 297 298 299 299 302 301 302 302 301 302 306 307 307 309 310 312 316 321 323 323 324 324 322 322 321 320 319 320 322 322 321 320 319 318 317 317 318 318 318 318 315
290 293 295 297 298 298 299 299 301 302 303 304 306 307 308 309 311 312 316 321 321 321 321 321 322 321 322 321 320 321 322 322 320 319 318 317 315 314 313 312 311 310 309
290 292 294 295 295 296 297 299 300 302 303 305 305 307 307 310 311 313 315 320 321 321 320 322 322 321 322 321 321 320 320 320 319 318 317 315 313 309 306 306 306 306 306
287 290 292 294 296 296 298 298 299 300 302 302 304 306 306 307 311 313 315 316 320 321 321 319 318 318 317 318 320 319 319 318 317 317 314 312 309 304 302 303 302 302 302
287 289 291 293 295 297 298 299 299 299 300 301 303 306 306 306 308 312 314 312 318 318 318 318 317 315 315 313 314 315 315 314 314 313 311 308 304 302 301 301 301 300 300
286 287 289 291 293 295 296 297 298 300 300 300 303 304 305 303 302 311 310 303 316 316 314 313 311 309 309 310 309 309 309 309 310 310 308 306 302 300 299 299 299 298 297
286 286 287 289 291 292 294 296 298 298 298 298 301 301 299 299 298 306 302 306 309 308 310 306 306 305 305 305 306 305 305 305 305 306 306 304 302 301 300 298 297 297 296
286 286 287 287 288 290 292 292 293 294 295 293 294 296 296 295 299 301 299 300 302 301 299 298 297 296 296 296 297 299 301 302 302 302 301 299 298 297 297 296 296 296 296
286 286 286 287 287 288 289 289 289 291 291 291 292 294 292 292 293 291 289 288 291 291 291 292 292 293 292 292 293 294 294 295 296 297 297 297 297 295 295 295 295 294 293
287 287 287 287 288 288 289 289 289 291 290 290 291 290 290 288 288 289 289 290 290 291 291 291 291 291 290 290 291 291 291 290 289 290 291 292 293 293 294 293 293 293 293
287 288 288 288 288 288 289 289 290 290 291 292 290 290 290 289 290 289 289 290 291 291 291 290 290 290 290 290 290 290 290 290 290 289 289 289 288 287 287 287 287 287 286
288 288 288 288 288 288 288 288 289 288 288 288 288 288 288 288 288 289 290 290 290 291 291 290 290 291 291 291 291 290 290 290 290 289 289 289 289 289 288 288 288 287 287
288 289 289 289 288 288 289 288 288 288 288 288 288 288 289 289 290 290 290 290 290 289 289 290 289 289 289 289 288 289 289 289 288 288 288 288 287 287 287 287 286 286 287
286 287 287 288 288 288 288 287 287 287 288 288 287 288 287 287 287 287 287 287 287 287 287 287 286 285 285 285 285 285 285 285 285 285 285 285 285 284 284 284 284 284 284
285 285 286 287 287 287 286 285 285 285 285 285 285 285 286 286 286 286 286 286 286 286 285 285 284 284 285 284 284 284 283 283 283 283 283 283 283 283 282 282 281 281 281
286 286 286 285 285 284 285 286 286 285 285 285 285 285 286 285 286 286 286 286 286 286 285 284 283 283 283 283 282 282 282 281 281 280 280 279 279 279 279 279 279 279 278
288 288 287 287 287 287 287 286 286 286 285 285 286 286 286 286 285 285 284 284 284 283 283 283 283 283 282 282 281 280 279 279 279 279 279 279 278 278 277 275 275 275 274
289 289 289 288 288 287 287 286 286 285 284 284 284 284 284 285 285 284 284 284 283 282 282 282 281 281 280 280 279 279 279 278 277 276 275 274 274 274 273 273 273 273 272
289 289 289 289 289 289 289 288 288 287 286 286 285 284 284 284 284 284 283 283 283 282 282 281 280 280 279 278 277 276 275 275 274 274 273 273 272 272 272 272 271 271 271
289 289 289 289 289 289 288 288 287 287 286 285 284 284 283 283 283 283 282 281 280 279 278 278 277 276 276 275 274 274 273 272 272 272 271 271 271 270 270 270 270 270 269
289 289 288 288 288 288 287 287 286 285 284 283 282 282 281 281 280 279 278 277 276 275 275 274 274 274 273 273 272 272 271 271 271 270 270 270 269 269 269 269 268 268 269
288 288 288 288 287 287 286 286 285 285 283 282 281 281 280 280 279 278 276 275 275 274 274 273 273 272 272 271 271 270 270 269 269 269 269 269 269 269 269 268 268 268 268
288 288 288 287 286 286 285 285 284 284 283 282 281 281 280 279 278 276 275 274 274 273 273 272 271 271 270 270 269 269 269 268 268 269 269 268 268 268 268 267 267 267 266
286 286 286 285 285 285 284 284 283 283 282 281 280 280 279 277 275 274 273 273 272 272 271 271 270 270 269 269 269 269 269 269 269 268 268 268 268 267 267 266 266 266 265
287 285 285 285 284 284 283 283 282 282 281 280 279 278 276 275 274 273 272 272 272 272 271 271 270 269 269 269 269 269 269 269 268 268 267 267 267 266 266 266 265 265 264
286 284 284 283 283 282 282 281 281 280 279 279 278 276 274 273 272 271 272 272 272 271 271 270 270 270 269 269 269 268 268 268 267 267 266 266 266 266 265 265 265 264 264
Wind_Speed
14 11 10 10 12 15 15 14 13 12 15 13 14 16 16 20 26 29 26 38 42 42 44 39 36 34 34 33 34 33 34 26 25 20 25 27 23 24 26 29 30 27 23
14 10 8 10 12 13 13 13 13 11 11 11 12 15 15 21 22 23 25 37 34 32 37 30 29 33 33 32 35 36 29 25 23 26 25 22 20 20 18 16 16 16 18
14 10 8 7 7 7 7 8 8 11 11 10 13 14 14 18 18 19 20 28 37 38 28 29 27 26 28 35 34 27 27 22 21 22 22 20 19 17 16 16 16 17 18
14 11 8 5 5 5 6 6 6 6 10 9 8 14 13 15 18 16 19 26 30 31 25 16 12 21 22 24 19 18 17 18 19 17 19 20 20 19 18 18 17 16 15
14 11 9 5 3 4 6 7 6 4 5 7 8 11 13 17 18 18 19 26 27 28 23 21 16 16 16 11 10 11 10 10 10 13 16 19 21 22 21 18 16 15 14
14 13 9 5 4 2 2 3 3 5 5 5 7 7 6 12 18 24 21 29 25 24 25 23 21 18 17 11 11 10 9 7 9 12 14 17 19 19 18 16 15 15 12
15 13 11 8 5 4 5 6 6 5 8 10 9 6 9 12 22 28 27 35 33 32 28 26 23 19 17 15 13 11 12 12 11 7 10 13 16 16 15 14 13 12 10
18 16 15 13 12 11 10 11 13 14 17 18 20 20 21 24 26 30 31 34 35 33 32 27 24 22 19 15 15 14 15 16 15 13 13 15 13 13 12 11 12 12 10
23 22 21 20 18 17 18 19 20 22 25 27 29 31 30 29 26 24 28 33 36 35 31 28 23 22 21 17 13 14 14 14 14 12 9 8 10 12 12 12 13 12 10
25 23 22 23 25 26 27 27 28 29 32 31 34 32 31 28 22 22 24 27 30 30 27 25 22 19 18 16 11 12 11 13 11 9 9 8 8 9 10 12 12 12 11
21 21 22 24 26 26 27 28 29 31 31 30 30 29 26 24 20 18 17 19 20 21 21 20 19 14 13 12 9 8 6 7 6 5 5 7 7 8 9 10 11 12 13
14 17 19 19 20 20 22 21 22 23 24 25 24 23 22 22 19 14 14 15 14 13 14 13 12 8 5 4 3 3 2 3 4 4 7 7 8 9 9 10 11 13 14
10 11 12 13 14 14 15 17 18 18 19 20 19 18 17 15 13 10 9 9 9 9 8 6 3 2 1 1 2 3 3 5 6 7 9 10 9 9 10 9 12 12 13
8 9 9 10 11 12 12 14 15 16 16 16 16 15 14 12 11 10 9 9 9 7 7 6 5 3 3 3 2 2 2 4 6 7 9 7 7 7 9 9 11 12 12
7 9 12 12 12 13 15 17 16 16 14 14 15 13 11 10 10 8 7 6 6 5 5 4 3 3 3 2 2 2 2 3 4 5 5 4 4 5 6 7 8 9 10
8 8 10 11 12 13 13 14 15 16 16 16 15 12 12 11 10 9 8 6 5 6 5 4 4 4 3 3 2 2 3 2 3 3 3 4 4 4 4 5 5 6 6
7 9 10 10 10 10 10 11 12 12 13 12 12 12 11 10 10 9 7 6 3 2 3 3 4 5 4 4 3 2 3 3 4 4 5 5 5 6 7 7 8 7 8
5 7 7 8 9 10 11 12 12 13 13 13 14 14 14 13 11 10 8 7 5 3 3 5 5 5 4 4 3 4 5 5 5 6 6 6 6 7 8 8 8 8 9
4 5 5 6 7 8 8 8 7 7 6 6 6 6 6 6 7 7 7 6 6 5 5 5 5 5 5 6 6 6 6 6 6 7 7 7 7 7 8 8 9 9 10
2 2 2 2 2 2 2 1 2 2 2 2 2 3 3 3 4 3 3 3 3 4 4 5 6 7 7 7 7 7 6 6 6 6 7 7 7 8 9 10 10 11 12
7 6 5 4 4 3 3 3 4 3 3 4 3 3 3 4 4 3 4 4 4 4 5 5 6 7 7 7 7 7 7 7 8 8 9 9 10 10 11 12 12 13 14
11 9 8 8 8 7 7 6 6 5 5 4 5 4 4 5 5 6 6 6 7 7 7 7 7 7 7 7 8 8 8 9 10 11 11 12 13 13 15 15 15 15 16
13 12 12 12 11 10 9 9 9 8 7 6 7 7 7 7 7 8 8 9 8 8 8 9 8 8 8 9 9 10 11 11 13 15 16 16 17 17 17 18 18 19 20
17 16 15 14 12 12 12 11 10 10 9 8 8 8 8 9 9 10 10 10 9 9 10 10 10 10 11 12 13 14 15 16 18 19 20 21 21 21 22 24 24 25 25
18 18 17 15 14 13 13 12 12 12 11 10 9 9 10 11 11 11 11 11 11 11 12 12 13 13 14 15 17 18 19 20 21 22 23 25 26 26 27 28 28 28 27
18 18 17 16 14 14 14 13 13 12 10 10 10 10 11 12 12 12 12 12 12 12 13 14 15 17 18 19 19 21 22 23 24 25 26 28 30 30 29 29 28 27 26
Wind_Direction
306 307 304 295 279 270 253 247 237 244 249 246 252 261 274 268 249 243 264 221 214 210 210 209 224 232 229 241 242 249 254 246 254 233 228 228 227 229 237 240 242 242 243
316 315 304 281 268 269 267 255 246 245 244 254 251 255 268 265 249 242 269 208 208 211 216 214 216 231 238 246 244 245 244 248 242 246 246 227 228 233 230 227 218 216 203
333 324 307 294 279 266 267 264 257 243 240 234 247 254 265 256 241 238 256 228 211 211 204 212 216 236 242 242 239 239 229 227 240 245 239 229 219 210 203 204 200 201 200
348 334 322 296 270 261 253 255 258 266 236 239 253 258 264 263 232 228 246 199 191 192 191 189 214 211 212 211 216 210 226 234 234 239 237 215 202 190 195 191 183 186 189
3 356 345 332 281 234 225 232 230 245 240 231 262 252 250 265 222 223 237 190 180 177 175 188 182 184 183 177 187 199 207 208 217 216 210 195 186 182 185 187 193 194 193
18 19 10 354 338 254 215 232 186 188 233 213 222 236 237 252 188 214 214 162 162 161 152 146 145 147 149 149 148 154 165 163 184 184 181 184 179 182 184 192 197 189 181
42 48 48 44 51 90 116 127 133 159 161 151 150 161 157 164 163 161 156 136 141 130 133 130 132 126 124 129 127 132 129 124 124 140 166 169 171 177 182 186 194 198 198
58 64 72 79 89 101 116 124 131 138 136 126 125 128 126 125 137 133 129 126 121 121 120 119 123 117 108 111 118 124 123 125 127 138 149 154 164 167 169 179 183 185 186
61 72 80 89 94 100 105 111 116 122 117 111 109 110 104 94 98 108 120 119 114 112 113 116 117 117 112 109 116 116 118 122 124 130 134 141 154 166 168 181 189 197 207
61 70 82 89 98 102 106 108 108 107 104 103 99 96 97 99 112 123 117 110 112 112 112 113 109 111 111 109 111 107 122 122 128 132 140 147 167 176 186 197 209 224 229
67 71 77 86 90 92 96 98 98 98 97 97 102 101 101 106 102 97 98 98 95 103 104 109 114 116 117 117 117 118 119 122 134 150 165 182 187 200 210 214 217 224 227
73 79 79 77 84 93 93 94 95 98 101 100 99 101 102 101 101 98 86 80 87 94 95 95 99 100 102 109 128 133 148 185 215 220 222 222 223 223 231 238 238 237 238
81 78 79 83 82 83 89 97 99 98 96 97 96 93 88 84 88 86 86 80 81 80 92 86 86 79 3 283 257 253 260 249 244 253 251 243 244 249 249 247 254 254 252
63 66 75 80 84 88 86 87 87 83 84 88 87 84 81 82 82 82 75 72 72 60 47 43 41 56 62 43 16 5 291 257 248 247 251 251 253 257 265 265 261 258 254
81 86 96 93 88 89 90 86 85 85 84 85 84 78 76 77 73 67 63 56 48 37 41 49 72 49 27 15 353 312 267 275 280 260 259 265 274 288 285 273 269 270 263
60 64 68 74 85 84 79 79 73 68 65 65 68 64 60 60 58 57 51 43 20 2 4 3 9 28 23 28 13 340 316 287 263 277 308 324 328 317 314 300 290 278 277
52 57 53 52 57 67 75 73 69 69 67 64 59 58 54 52 49 49 51 58 36 15 308 321 344 351 351 341 347 309 290 328 340 335 328 326 323 315 308 298 295 298 294
75 66 60 53 49 47 45 46 47 44 39 35 32 29 26 26 25 25 24 25 34 21 356 348 345 342 333 321 309 314 321 319 311 309 307 305 301 295 289 287 290 289 288
48 44 39 36 32 29 29 33 35 38 39 38 31 19 12 8 4 0 359 354 347 343 334 320 311 305 295 297 303 304 299 293 295 296 296 295 293 290 289 291 293 293 292
293 302 340 351 346 344 343 360 20 30 30 21 14 15 6 357 359 353 338 321 300 281 272 273 278 281 286 291 291 288 287 290 292 292 292 293 292 293 294 294 292 292 291
261 268 277 281 276 282 291 304 329 338 340 333 336 347 347 342 339 327 317 308 298 290 287 286 284 284 283 282 281 281 281 282 282 284 286 288 290 290 288 286 285 284 283
258 268 279 284 285 283 285 290 293 293 294 296 310 318 314 305 301 298 296 293 292 291 291 289 284 280 277 275 276 277 278 279 280 281 282 282 282 283 282 283 283 283 281
264 269 271 274 276 280 282 281 280 281 285 290 292 290 287 283 280 278 278 278 279 283 285 284 281 279 279 280 281 282 284 287 287 289 289 288 287 287 285 285 284 284 284
261 260 263 264 266 269 271 271 274 275 275 273 276 279 281 282 282 282 280 281 284 287 286 284 283 282 281 282 284 287 289 289 289 290 290 290 290 289 288 287 288 288 288
258 257 259 262 265 268 270 270 269 267 267 269 270 273 275 276 275 274 274 277 283 285 284 282 281 282 285 286 287 289 289 289 288 287 287 287 287 287 286 286 286 286 285
253 253 255 258 261 263 264 263 263 263 263 266 271 273 272 270 268 269 275 281 280 278 277 280 284 287 288 289 289 289 288 288 288 287 286 285 285 285 284 284 284 283 282